This demonstration page uses our WeatherBlox Daily Observations layout. Learn more.

Left ArrowRight Arrow

Hourly Observations for July 18, 2022

Temp ( °F °C ) Dew Point ( °F °C ) Humidity (%) Winds ( mph kmh ) Pressure ( in mb ) Visibility ( mi km ) Precip ( " mm )
12:53 am 00:53 Mostly Clear 92 33.3 59 15 33 33 S 9 15 29.82 1010 10 16 0.00 0.00
1:53 am 01:53 Mostly Clear 91 32.8 58 14.4 33 33 S 9 15 29.82 1010 10 16 0.00 0.00
2:53 am 02:53 Partly Cloudy 89 31.7 60 15.6 38 38 S 9 15 29.83 1010 10 16 0.00 0.00
3:53 am 03:53 Mostly Clear 89 31.7 64 17.8 43 43 SSW 13 20 29.84 1010 10 16 0.00 0.00
4:53 am 04:53 Mostly Clear 87 30.6 64 17.8 46 46 SSW 10 17 29.85 1011 10 16 0.00 0.00
5:53 am 05:53 Partly Cloudy 86 30 65 18.3 49 49 SSW 12 19 29.86 1011 9 14 0.00 0.00
6:53 am 06:53 Mostly Sunny 84 28.9 65 18.3 53 53 SSW 8 13 29.88 1012 9 14 0.00 0.00
7:53 am 07:53 Partly Cloudy 85 29.4 66 18.9 53 53 SSW 8 13 29.89 1012 9 14 0.00 0.00
8:53 am 08:53 Partly Cloudy 87 30.6 66 18.9 50 50 SW 12 19 29.90 1012 9 14 0.00 0.00
9:53 am 09:53 Mostly Sunny 89 31.7 66 18.9 47 47 SSW 13 20 29.89 1012 9 14 0.00 0.00
10:53 am 10:53 Mostly Sunny 93 33.9 66 18.9 41 41 SSW 10 17 29.89 1012 9 14 0.00 0.00
11:53 am 11:53 Mostly Sunny 96 35.6 66 18.9 37 37 VRB 7 11 29.88 1012 9 14 0.00 0.00
12:04 pm 12:04 Mostly Sunny 98 36.7 65 18.3 34 34 SSW 12 19 29.87 1011 9 14 0.00 0.00
12:53 pm 12:53 Mostly Sunny 101 38.3 64 17.8 30 30 SW 6 9 29.86 1011 9 14 0.00 0.00
1:53 pm 13:53 Mostly Sunny 103 39.4 64 17.8 28 28 SW 12 19 29.83 1010 9 14 0.00 0.00
2:53 pm 14:53 Mostly Sunny 106 41.1 63 17.2 25 25 SSW 10 17 29.81 1010 9 14 0.00 0.00
3:53 pm 15:53 Mostly Sunny 107 41.7 64 17.8 25 25 S 9 15 29.79 1009 10 16 0.00 0.00
4:53 pm 16:53 Mostly Sunny 107 41.7 63 17.2 24 24 S 10 17 29.77 1008 10 16 0.00 0.00
5:53 pm 17:53 Mostly Sunny 106 41.1 63 17.2 25 25 S 14 22 29.75 1008 10 16 0.00 0.00
6:53 pm 18:53 Mostly Sunny 104 40 62 16.7 25 25 S 17 28 29.75 1007 10 16 0.00 0.00
7:53 pm 19:53 Mostly Sunny 102 38.9 60 15.6 25 25 S 18 30 29.75 1007 10 16 0.00 0.00
8:53 pm 20:53 Mostly Clear 100 37.8 60 15.6 27 27 S 10 17 29.75 1007 10 16 0.00 0.00
9:53 pm 21:53 Clear 98 36.7 59 15 27 27 S 10 17 29.77 1008 10 16 0.00 0.00
10:53 pm 22:53 Clear 97 36.1 59 15 28 28 S 12 19 29.79 1009 10 16 0.00 0.00
11:53 pm 23:53 Clear 94 34.4 61 16.1 33 33 S 15 24 29.79 1009 10 16 0.00 0.00

Powered by AerisWeather